Weather History for Defuniak Springs, Defuniak Sp, FL

Change the Weather History Date:

Wednesday, March 12, 2014

  Actual Average (KCEW) Record (KCEW)
Temperature  
Mean Temperature 58 °F -  
Max Temperature 71 °F 71 °F 82 °F (1990)
Min Temperature 45 °F 48 °F 25 °F (1998)
Degree Days  
Heating Degree Days 6    
Growing Degree Days 8 (Base 50)    
Moisture  
Dew Point 54 °F    
Average Humidity 77    
Maximum Humidity 100    
Minimum Humidity 55    
Precipitation  
Precipitation 0.00 in - - ()
Sea Level Pressure  
Sea Level Pressure 29.81 in    
Wind  
Wind Speed 9 mph (West)    
Max Wind Speed 24 mph    
Max Gust Speed 34 mph    
Visibility 10 miles    
Events      
Averages and records for this station are not official NWS values.
T = Trace of Precipitation, MM = Missing Value Source: NWS Daily Summary

Daily Weather History Graph

Daily Weather History Graph

Search for Another Location

Airport:

Trip Planner

Search our weather history database for the weather conditions in past years. The results will help you decide how hot, cold, wet, or windy it might be!

Date:

Astronomy

Mar. 12, 2014 Rise Set
Actual Time 6:58 AM CDT 6:50 PM CDT
Civil Twilight 6:34 AM CDT 7:14 PM CDT
Nautical Twilight 6:06 AM CDT 7:42 PM CDT
Astronomical Twilight 5:38 AM CDT 8:10 PM CDT
Moon 3:32 PM CDT (3/12) 4:17 AM CDT (3/12)
Length of Visible Light 12h 40m
Length of Day
11h 52m
Waxing Gibbous, 85% of the Moon is Illuminated
Mar 12
Waxing Gibbous
Mar 16
Full
Mar 23
Last Quarter
Mar 30
New
Apr 7
First Quarter

Hourly Weather History & Observations

Time (CDT) Temp. Windchill Dew Point Humidity Pressure Visibility Wind Dir Wind Speed Gust Speed Precip Events Conditions
12:15 AM 62.6 °F - 62.6 °F 100% 29.75 in 7.0 mi South 6.9 mph - N/A   Overcast
12:35 AM 62.6 °F - 62.6 °F 100% 29.75 in 7.0 mi South 8.1 mph - N/A   Overcast
12:55 AM 62.8 °F - 62.8 °F 100% 29.74 in 7.0 mi South 8.1 mph - N/A   Overcast
1:15 AM 62.8 °F - 62.8 °F 100% 29.73 in 7.0 mi South 8.1 mph - N/A   Overcast
1:35 AM 63.1 °F - 63.1 °F 100% 29.72 in 10.0 mi South 9.2 mph - N/A   Overcast
1:55 AM 63.5 °F - 63.1 °F 99% 29.72 in 10.0 mi SSW 6.9 mph - N/A   Overcast
2:15 AM 63.7 °F - 63.0 °F 97% 29.71 in 10.0 mi SSW 5.8 mph - N/A   Overcast
2:35 AM 63.5 °F - 62.8 °F 97% 29.71 in 10.0 mi SSW 5.8 mph - N/A   Overcast
2:55 AM 63.5 °F - 62.8 °F 97% 29.70 in 5.0 mi SW 9.2 mph - N/A   Drizzle
3:15 AM 63.5 °F - 62.8 °F 97% 29.69 in 7.0 mi SSW 9.2 mph - N/A   Light Drizzle
3:35 AM 63.0 °F - 62.6 °F 99% 29.69 in 10.0 mi SW 10.4 mph - N/A   Overcast
3:55 AM 63.0 °F - 62.2 °F 97% 29.70 in 10.0 mi SW 6.9 mph - N/A   Overcast
4:15 AM 62.8 °F - 61.9 °F 97% 29.70 in 10.0 mi SW 10.4 mph - N/A   Overcast
4:35 AM 62.6 °F - 61.7 °F 97% 29.71 in 10.0 mi SW 9.2 mph - N/A   Overcast
4:55 AM 62.6 °F - 61.3 °F 96% 29.72 in 10.0 mi West 10.4 mph 16.1 mph N/A   Overcast
5:15 AM 62.6 °F - 61.2 °F 95% 29.72 in 10.0 mi WSW 9.2 mph - N/A   Overcast
5:35 AM 62.6 °F - 61.2 °F 95% 29.72 in 10.0 mi West 6.9 mph - N/A   Overcast
5:55 AM 62.6 °F - 61.0 °F 94% 29.73 in 10.0 mi West 9.2 mph - N/A   Overcast
6:15 AM 62.6 °F - 60.8 °F 94% 29.73 in 10.0 mi West 6.9 mph - N/A   Overcast
6:35 AM 61.9 °F - 60.6 °F 96% 29.74 in 10.0 mi WSW 4.6 mph - N/A   Mostly Cloudy
6:55 AM 62.1 °F - 60.4 °F 94% 29.75 in 10.0 mi WSW 5.8 mph - N/A   Overcast
7:15 AM 62.1 °F - 60.4 °F 94% 29.75 in 10.0 mi WSW 6.9 mph - N/A   Overcast
7:35 AM 62.1 °F - 60.3 °F 94% 29.75 in 10.0 mi WSW 6.9 mph - N/A   Overcast
7:55 AM 62.2 °F - 59.9 °F 92% 29.77 in 10.0 mi WSW 9.2 mph - N/A   Overcast
8:15 AM 62.2 °F - 60.1 °F 93% 29.77 in 10.0 mi WSW 9.2 mph - N/A   Overcast
8:35 AM 63.0 °F - 59.9 °F 90% 29.77 in 10.0 mi WSW 9.2 mph - N/A   Overcast
8:55 AM 63.7 °F - 60.1 °F 88% 29.78 in 10.0 mi West 5.8 mph 16.1 mph N/A   Overcast
9:15 AM 63.5 °F - 59.9 °F 88% 29.79 in 10.0 mi West 8.1 mph 17.3 mph N/A   Overcast
9:35 AM 63.5 °F - 59.7 °F 87% 29.79 in 10.0 mi West 6.9 mph - N/A   Overcast
9:55 AM 64.4 °F - 59.7 °F 85% 29.79 in 10.0 mi WSW 8.1 mph - N/A   Overcast
10:15 AM 66.4 °F - 59.5 °F 79% 29.79 in 10.0 mi WSW 8.1 mph - N/A   Overcast
10:35 AM 66.4 °F - 57.6 °F 73% 29.79 in 10.0 mi West 5.8 mph - N/A   Overcast
10:55 AM 65.7 °F - 57.0 °F 74% 29.79 in 10.0 mi WSW 6.9 mph - N/A   Overcast
11:15 AM 67.8 °F - 57.6 °F 70% 29.78 in 10.0 mi WSW 6.9 mph - N/A   Mostly Cloudy
11:35 AM 69.3 °F - 57.6 °F 66% 29.78 in 10.0 mi WSW 9.2 mph - N/A   Scattered Clouds
11:55 AM 69.3 °F - 57.7 °F 67% 29.78 in 10.0 mi West 6.9 mph - N/A   Mostly Cloudy
12:15 PM 70.2 °F - 58.3 °F 66% 29.78 in 10.0 mi WSW 9.2 mph 18.4 mph N/A   Overcast
12:35 PM 70.2 °F - 58.1 °F 65% 29.78 in 10.0 mi West 9.2 mph - N/A   Overcast
1:15 PM 70.9 °F - 58.3 °F 64% 29.77 in 10.0 mi WSW 10.4 mph - N/A   Overcast
1:35 PM 71.1 °F - 58.3 °F 64% 29.77 in 10.0 mi West 6.9 mph - N/A   Overcast
1:55 PM 71.6 °F - 58.3 °F 63% 29.76 in 10.0 mi West 10.4 mph - N/A   Overcast
2:15 PM 71.1 °F - 58.3 °F 64% 29.75 in 10.0 mi WNW 10.4 mph - N/A   Overcast
2:35 PM 71.6 °F - 58.5 °F 63% 29.75 in 10.0 mi WNW 9.2 mph - N/A   Mostly Cloudy
2:55 PM 70.5 °F - 58.5 °F 66% 29.75 in 10.0 mi WNW 13.8 mph 18.4 mph N/A   Mostly Cloudy
3:15 PM 69.4 °F - 57.7 °F 66% 29.75 in 10.0 mi West 8.1 mph 19.6 mph N/A   Overcast
3:35 PM 68.9 °F - 57.2 °F 66% 29.76 in 10.0 mi West 11.5 mph 16.1 mph N/A   Overcast
3:55 PM 69.1 °F - 58.1 °F 68% 29.76 in 10.0 mi West 8.1 mph - N/A   Overcast
4:15 PM 68.9 °F - 57.7 °F 68% 29.77 in 10.0 mi West 6.9 mph 18.4 mph N/A   Overcast
4:35 PM 69.1 °F - 57.2 °F 66% 29.77 in 10.0 mi West 11.5 mph 20.7 mph N/A   Overcast
4:55 PM 70.0 °F - 57.6 °F 65% 29.77 in 10.0 mi West 12.7 mph 18.4 mph N/A   Mostly Cloudy
5:15 PM 68.9 °F - 57.4 °F 67% 29.77 in 10.0 mi West 8.1 mph - N/A   Mostly Cloudy
5:35 PM 68.0 °F - 57.4 °F 69% 29.78 in 10.0 mi WNW 9.2 mph 17.3 mph N/A   Overcast
5:55 PM 65.3 °F - 54.5 °F 68% 29.81 in 10.0 mi NW 19.6 mph 28.8 mph N/A   Overcast
6:15 PM 63.5 °F - 52.3 °F 67% 29.82 in 10.0 mi NW 13.8 mph 27.6 mph N/A   Mostly Cloudy
6:35 PM 60.6 °F - 48.9 °F 65% 29.85 in 10.0 mi NNW 20.7 mph 28.8 mph N/A   Scattered Clouds
6:55 PM 58.8 °F - 45.7 °F 62% 29.87 in 10.0 mi NNW 19.6 mph 28.8 mph N/A   Clear
7:15 PM 56.8 °F - 43.9 °F 62% 29.89 in 10.0 mi NNW 21.9 mph 26.5 mph N/A   Clear
7:35 PM 54.7 °F - 41.4 °F 61% 29.91 in 10.0 mi NNW 24.2 mph 31.1 mph N/A   Clear
7:55 PM 53.2 °F - 41.0 °F 63% 29.93 in 10.0 mi NNW 15.0 mph 24.2 mph N/A   Scattered Clouds
8:15 PM 52.7 °F - 39.4 °F 61% 29.94 in 10.0 mi NNW 18.4 mph 29.9 mph N/A   Clear
8:35 PM 52.0 °F - 37.8 °F 58% 29.96 in 10.0 mi NNW 19.6 mph 26.5 mph N/A   Clear
8:55 PM 51.6 °F - 36.9 °F 57% 29.97 in 10.0 mi NNW 21.9 mph 28.8 mph N/A   Clear
9:15 PM 50.9 °F - 36.7 °F 58% 29.99 in 10.0 mi NNW 13.8 mph 24.2 mph N/A   Clear
9:35 PM 50.4 °F - 34.7 °F 55% 30.00 in 10.0 mi NNW 20.7 mph 34.5 mph N/A   Clear
9:55 PM 49.5 °F - 34.3 °F 56% 30.01 in 10.0 mi NNW 19.6 mph 27.6 mph N/A   Clear
10:15 PM 48.7 °F - 34.7 °F 58% 30.03 in 10.0 mi NNW 12.7 mph 19.6 mph N/A   Clear
10:35 PM 48.2 °F - 34.3 °F 59% 30.04 in 10.0 mi North 17.3 mph 24.2 mph N/A   Clear
10:55 PM 47.7 °F - 33.3 °F 57% 30.05 in 10.0 mi North 10.4 mph 21.9 mph N/A   Clear
11:15 PM 46.9 °F - 32.9 °F 58% 30.06 in 10.0 mi NNW 13.8 mph 23.0 mph N/A   Clear
11:35 PM 46.4 °F 39.8 °F 32.4 °F 58% 30.06 in 10.0 mi North 16.1 mph 23.0 mph N/A   Clear
11:55 PM 45.9 °F 39.1 °F 31.5 °F 57% 30.07 in 10.0 mi NNW 16.1 mph 27.6 mph N/A   Clear